This is the latest recevied weather packets stored in our database for station/object W4ZHA. If no packets are shown the sender has not sent any weather packets the latest 10 day(s).
| Time | Temp. | Humidity | Pressure | Rain* | Wind** | Luminosity | Snow |
|---|---|---|---|---|---|---|---|
| 1787580616 | 23.89° C | 66% | 1017.9 hPa | 0 mm | - | 41 W/m² | - |
| 1787580311 | 23.89° C | 66% | 1017.9 hPa | 0 mm | - | 51 W/m² | - |
| 1787580007 | 23.89° C | 66% | 1017.9 hPa | 0 mm | - | 36 W/m² | - |
| 1787579706 | 23.89° C | 67% | 1017.9 hPa | 0 mm | - | 50 W/m² | - |
| 1787579401 | 23.33° C | 67% | 1018.3 hPa | 0 mm | - | 62 W/m² | - |
| 1787579096 | 23.33° C | 67% | 1018.3 hPa | 0 mm | - | 35 W/m² | - |
| 1787578792 | 23.33° C | 67% | 1018.3 hPa | 0 mm | - | 33 W/m² | - |
| 1787578487 | 22.78° C | 67% | 1018.3 hPa | 0 mm | - | 31 W/m² | - |
| 1787578187 | 22.78° C | 67% | 1018.3 hPa | 0 mm | - | 30 W/m² | - |
| 1787577882 | 22.78° C | 65% | 1018.3 hPa | 0 mm | - | 30 W/m² | - |
| 1787577577 | 22.22° C | 67% | 1018.3 hPa | 0 mm | - | 30 W/m² | - |
| 1787577273 | 21.67° C | 71% | 1018.3 hPa | 0 mm | - | 33 W/m² | - |
| 1787576970 | 21.67° C | 74% | 1018.3 hPa | 0 mm | - | 28 W/m² | - |
| 1787576670 | 21.11° C | 81% | 1018.3 hPa | 0 mm | - | 27 W/m² | - |
| 1787576366 | 20.56° C | 88% | 1018.3 hPa | 0 mm | - | 27 W/m² | - |
| 1787576061 | 20° C | 93% | 1018.3 hPa | 0 mm | - | 26 W/m² | - |
| 1787575756 | 19.44° C | 93% | 1018.3 hPa | 0 mm | - | 25 W/m² | - |
| 1787575452 | 19.44° C | 95% | 1018.6 hPa | 0 mm | - | 25 W/m² | - |
| 1787575148 | 19.44° C | 95% | 1018.3 hPa | 0 mm | - | 24 W/m² | - |
| 1787574847 | 19.44° C | 96% | 1017.9 hPa | 0 mm | - | 23 W/m² | - |
| 1787574542 | 18.89° C | 98% | 1018.3 hPa | 0 mm | - | 22 W/m² | - |
| 1787574241 | 18.89° C | 97% | 1018.3 hPa | 0 mm | - | 22 W/m² | - |
| 1787573936 | 18.33° C | 97% | 1018.3 hPa | 0 mm | - | 21 W/m² | - |
| 1787573635 | 18.33° C | 97% | 1017.9 hPa | 0 mm | - | 20 W/m² | - |
| 1787573331 | 18.33° C | 97% | 1018.6 hPa | 0 mm | - | 19 W/m² | - |
* Rain latest hour (hover to see other rain measurements)
** Current wind speed in m/s (hover to see current wind gust speed)